VLG5BP LEZL-LEBB

Flight info

Callsign VLG5BP
Flight time 1h 5m
Altitude 34000
Route HIJ2P HIJ DCT PARKA DCT TLD DCT SIE DCT EDIGO DCT DGO DGO2Y
Aircraft A319/M-SDE3FGHIRWY/LB1

Departure

Time 2026-05-08 17:03
Airport Seville Airport (LEZL)

Arrival

Time 2026-05-08 18:08
Airport Bilbao Airport (LEBB)
Time Latitude Longitude Altitude Speed Heading
2026-05-08 16:30 37.42304 -5.89843 94 ft 0 kts 313°
2026-05-08 16:54 37.42287 -5.89822 96 ft 4 kts 319°
2026-05-08 16:55 37.42265 -5.89801 93 ft 4 kts 333°
2026-05-08 16:55 37.42242 -5.89792 94 ft 4 kts 17°
2026-05-08 16:55 37.42233 -5.89797 94 ft 0 kts 44°
2026-05-08 16:57 37.42240 -5.89789 94 ft 5 kts 44°
2026-05-08 16:57 37.42269 -5.89728 94 ft 9 kts 89°
2026-05-08 16:58 37.42227 -5.89672 94 ft 9 kts 136°
2026-05-08 16:58 37.42162 -5.89587 96 ft 20 kts 134°
2026-05-08 16:58 37.42070 -5.89471 100 ft 19 kts 135°
2026-05-08 16:58 37.41985 -5.89347 100 ft 18 kts 109°
2026-05-08 16:59 37.41983 -5.89191 100 ft 18 kts 89°
2026-05-08 16:59 37.41984 -5.89042 101 ft 17 kts 90°
2026-05-08 16:59 37.41984 -5.88893 102 ft 17 kts 90°
2026-05-08 16:59 37.41984 -5.88748 103 ft 16 kts 89°
2026-05-08 17:00 37.41985 -5.88614 103 ft 16 kts 88°
2026-05-08 17:00 37.41985 -5.88477 104 ft 15 kts 91°
2026-05-08 17:00 37.41984 -5.88344 105 ft 15 kts 90°
2026-05-08 17:00 37.41987 -5.88213 106 ft 15 kts 89°
2026-05-08 17:01 37.41988 -5.88085 106 ft 15 kts 90°
2026-05-08 17:01 37.41987 -5.87958 107 ft 14 kts 90°
2026-05-08 17:01 37.41986 -5.87815 108 ft 20 kts 90°
2026-05-08 17:01 37.41989 -5.87608 109 ft 25 kts 89°
2026-05-08 17:02 37.41921 -5.87432 114 ft 22 kts 155°
2026-05-08 17:02 37.41801 -5.87481 116 ft 19 kts 246°
2026-05-08 17:02 37.41797 -5.87667 113 ft 34 kts 270°
2026-05-08 17:02 37.41795 -5.88283 106 ft 104 kts 269°
2026-05-08 17:03 37.41788 -5.89449 101 ft 160 kts 270°
2026-05-08 17:03 37.41795 -5.90857 670 ft 158 kts 267°
2026-05-08 17:03 37.41848 -5.92230 1329 ft 162 kts 278°
2026-05-08 17:03 37.42506 -5.93461 1915 ft 177 kts 307°
2026-05-08 17:04 37.43468 -5.94596 2222 ft 201 kts 312°
2026-05-08 17:04 37.44579 -5.95820 2524 ft 223 kts 315°
2026-05-08 17:04 37.45786 -5.97150 2925 ft 242 kts 314°
2026-05-08 17:04 37.47064 -5.98579 3639 ft 249 kts 314°
2026-05-08 17:05 37.48403 -6.00101 4177 ft 268 kts 315°
2026-05-08 17:05 37.49778 -6.01686 4973 ft 276 kts 314°
2026-05-08 17:05 37.51160 -6.03300 5798 ft 282 kts 314°
2026-05-08 17:05 37.52602 -6.04998 6657 ft 287 kts 314°
2026-05-08 17:06 37.54069 -6.06729 7525 ft 291 kts 314°
2026-05-08 17:06 37.55551 -6.08481 8440 ft 293 kts 313°
2026-05-08 17:06 37.57217 -6.09997 9331 ft 302 kts 334°
2026-05-08 17:06 37.59275 -6.10638 10045 ft 315 kts 356°
2026-05-08 17:07 37.61503 -6.10150 10309 ft 340 kts 24°
2026-05-08 17:07 37.63478 -6.08424 10718 ft 354 kts 43°
2026-05-08 17:07 37.65339 -6.06317 11354 ft 362 kts 43°
2026-05-08 17:07 37.67242 -6.04183 11999 ft 371 kts 42°
2026-05-08 17:08 37.69197 -6.02007 12657 ft 378 kts 41°
2026-05-08 17:08 37.71190 -5.99800 13317 ft 385 kts 41°
2026-05-08 17:08 37.73171 -5.97614 13907 ft 392 kts 41°
2026-05-08 17:08 37.75239 -5.95332 14478 ft 398 kts 41°
2026-05-08 17:09 37.77334 -5.93014 15073 ft 403 kts 41°
2026-05-08 17:09 37.79456 -5.90654 15656 ft 409 kts 41°
2026-05-08 17:09 37.81599 -5.88259 16267 ft 414 kts 41°
2026-05-08 17:09 37.83769 -5.85832 16865 ft 418 kts 41°
2026-05-08 17:10 37.85954 -5.83388 17436 ft 424 kts 41°
2026-05-08 17:10 37.88174 -5.80900 18024 ft 429 kts 41°
2026-05-08 17:10 37.90420 -5.78386 18550 ft 433 kts 41°
2026-05-08 17:10 37.92689 -5.75843 19081 ft 438 kts 41°
2026-05-08 17:11 37.94977 -5.73277 19622 ft 441 kts 41°
2026-05-08 17:11 37.97286 -5.70685 20119 ft 445 kts 41°
2026-05-08 17:11 37.99613 -5.68072 20694 ft 448 kts 41°
2026-05-08 17:11 38.01984 -5.65405 21237 ft 452 kts 41°
2026-05-08 17:12 38.04344 -5.62745 21767 ft 456 kts 41°
2026-05-08 17:12 38.06720 -5.60068 22307 ft 458 kts 41°
2026-05-08 17:12 38.08718 -5.57821 22725 ft 462 kts 41°
2026-05-08 17:12 38.11130 -5.55105 23220 ft 466 kts 41°
2026-05-08 17:13 38.13562 -5.52363 23672 ft 469 kts 41°
2026-05-08 17:13 38.16006 -5.49600 24081 ft 473 kts 41°
2026-05-08 17:13 38.17636 -5.47753 24330 ft 475 kts 41°
2026-05-08 17:13 38.20116 -5.44943 24729 ft 479 kts 40°
2026-05-08 17:14 38.22611 -5.42117 25099 ft 482 kts 40°
2026-05-08 17:14 38.25125 -5.39270 25464 ft 486 kts 40°
2026-05-08 17:14 38.27660 -5.36397 25822 ft 490 kts 40°
2026-05-08 17:14 38.30209 -5.33508 26178 ft 493 kts 40°
2026-05-08 17:15 38.32779 -5.30590 26530 ft 496 kts 40°
2026-05-08 17:15 38.35361 -5.27653 26904 ft 499 kts 40°
2026-05-08 17:15 38.37955 -5.24697 27251 ft 503 kts 40°
2026-05-08 17:15 38.40566 -5.21714 27602 ft 506 kts 40°
2026-05-08 17:16 38.43196 -5.18710 27948 ft 509 kts 39°
2026-05-08 17:16 38.46006 -5.15963 28277 ft 509 kts 29°
2026-05-08 17:16 38.48999 -5.13833 28599 ft 506 kts 19°
2026-05-08 17:16 38.52317 -5.12223 28933 ft 501 kts
2026-05-08 17:17 38.55641 -5.11276 29288 ft 495 kts
2026-05-08 17:17 38.59091 -5.10921 29608 ft 488 kts 352°
2026-05-08 17:17 38.62459 -5.11130 29916 ft 484 kts 346°
2026-05-08 17:17 38.65829 -5.11467 30199 ft 486 kts 346°
2026-05-08 17:18 38.69201 -5.11816 30473 ft 488 kts 346°
2026-05-08 17:18 38.72600 -5.12174 30700 ft 491 kts 345°
2026-05-08 17:18 38.76018 -5.12536 30959 ft 494 kts 345°
2026-05-08 17:18 38.79450 -5.12900 31229 ft 496 kts 345°
2026-05-08 17:19 38.82888 -5.13255 31585 ft 496 kts 345°
2026-05-08 17:19 38.86324 -5.13602 31929 ft 496 kts 345°
2026-05-08 17:19 38.89772 -5.13944 32276 ft 496 kts 345°
2026-05-08 17:19 38.93223 -5.14249 32626 ft 501 kts 348°
2026-05-08 17:20 38.96731 -5.14051 32946 ft 515 kts 358°
2026-05-08 17:20 39.00291 -5.13147 33274 ft 529 kts
2026-05-08 17:20 39.03780 -5.11513 33658 ft 539 kts 19°
2026-05-08 17:20 39.07086 -5.09180 33835 ft 545 kts 28°
2026-05-08 17:21 39.13411 -5.03929 33862 ft 538 kts 28°
2026-05-08 17:21 39.19684 -4.98707 33863 ft 537 kts 28°
2026-05-08 17:22 39.25965 -4.93485 33878 ft 536 kts 28°
2026-05-08 17:22 39.32223 -4.88293 33867 ft 534 kts 27°
2026-05-08 17:23 39.38469 -4.83095 33863 ft 534 kts 28°
2026-05-08 17:23 39.44750 -4.77839 33858 ft 534 kts 28°
2026-05-08 17:24 39.50981 -4.72618 33900 ft 533 kts 28°
2026-05-08 17:24 39.57195 -4.67406 33894 ft 531 kts 28°
2026-05-08 17:25 39.63366 -4.62212 33888 ft 529 kts 28°
2026-05-08 17:25 39.69528 -4.57007 33852 ft 528 kts 27°
2026-05-08 17:26 39.75675 -4.51814 33890 ft 526 kts 28°
2026-05-08 17:26 39.81806 -4.46619 33899 ft 525 kts 28°
2026-05-08 17:27 39.87905 -4.41434 33884 ft 523 kts 28°
2026-05-08 17:27 39.94014 -4.36240 33836 ft 526 kts 28°
2026-05-08 17:28 40.00372 -4.31650 33870 ft 520 kts 19°
2026-05-08 17:28 40.06925 -4.27663 33869 ft 520 kts 19°
2026-05-08 17:29 40.13329 -4.23758 33874 ft 520 kts 19°
2026-05-08 17:29 40.19878 -4.19759 33893 ft 520 kts 20°
2026-05-08 17:30 40.26421 -4.15753 33893 ft 519 kts 20°
2026-05-08 17:30 40.32961 -4.11740 33900 ft 519 kts 20°
2026-05-08 17:31 40.39394 -4.07774 33897 ft 519 kts 20°
2026-05-08 17:31 40.45915 -4.03739 33936 ft 518 kts 20°
2026-05-08 17:32 40.52420 -3.99709 33941 ft 516 kts 20°
2026-05-08 17:32 40.58957 -3.95667 33950 ft 516 kts 20°
2026-05-08 17:33 40.65445 -3.91641 33948 ft 515 kts 20°
2026-05-08 17:33 40.71924 -3.87609 33948 ft 515 kts 20°
2026-05-08 17:34 40.78401 -3.83567 33904 ft 515 kts 20°
2026-05-08 17:34 40.84883 -3.79519 33900 ft 515 kts 20°
2026-05-08 17:35 40.91276 -3.75514 33715 ft 504 kts 20°
2026-05-08 17:35 40.94361 -3.73578 32999 ft 503 kts 20°
2026-05-08 17:35 40.96026 -3.72531 32609 ft 503 kts 20°
2026-05-08 17:36 40.99180 -3.70547 31999 ft 500 kts 21°
2026-05-08 17:36 41.02312 -3.68578 31487 ft 495 kts 21°
2026-05-08 17:36 41.05406 -3.66631 30977 ft 491 kts 21°
2026-05-08 17:36 41.08483 -3.64693 30513 ft 486 kts 21°
2026-05-08 17:37 41.11517 -3.62779 30072 ft 481 kts 21°
2026-05-08 17:37 41.14526 -3.60881 29508 ft 477 kts 21°
2026-05-08 17:37 41.17525 -3.59052 28956 ft 472 kts 20°
2026-05-08 17:37 41.20525 -3.57353 28418 ft 467 kts 18°
2026-05-08 17:38 41.23521 -3.55747 27879 ft 462 kts 17°
2026-05-08 17:38 41.26497 -3.54193 27377 ft 458 kts 17°
2026-05-08 17:38 41.29454 -3.52650 26888 ft 454 kts 17°
2026-05-08 17:38 41.32374 -3.51103 26409 ft 451 kts 18°
2026-05-08 17:39 41.35271 -3.49538 25953 ft 447 kts 18°
2026-05-08 17:39 41.38138 -3.47969 25492 ft 444 kts 19°
2026-05-08 17:39 41.40981 -3.46399 25054 ft 441 kts 19°
2026-05-08 17:39 41.43802 -3.44831 24636 ft 438 kts 19°
2026-05-08 17:40 41.46644 -3.43252 24201 ft 435 kts 18°
2026-05-08 17:40 41.49423 -3.41716 23814 ft 431 kts 18°
2026-05-08 17:40 41.52154 -3.40210 23422 ft 427 kts 19°
2026-05-08 17:40 41.54918 -3.38691 22960 ft 424 kts 19°
2026-05-08 17:41 41.57634 -3.37200 22512 ft 420 kts 19°
2026-05-08 17:41 41.60322 -3.35718 22077 ft 417 kts 19°
2026-05-08 17:41 41.62986 -3.34246 21650 ft 413 kts 19°
2026-05-08 17:41 41.65627 -3.32787 21215 ft 410 kts 19°
2026-05-08 17:42 41.68258 -3.31331 20766 ft 406 kts 19°
2026-05-08 17:42 41.70860 -3.29889 20339 ft 403 kts 19°
2026-05-08 17:42 41.73440 -3.28455 19939 ft 400 kts 20°
2026-05-08 17:42 41.75998 -3.27033 19537 ft 396 kts 20°
2026-05-08 17:43 41.78535 -3.25622 19136 ft 393 kts 20°
2026-05-08 17:43 41.81053 -3.24222 18737 ft 390 kts 20°
2026-05-08 17:43 41.83551 -3.22832 18342 ft 387 kts 20°
2026-05-08 17:43 41.86028 -3.21455 17933 ft 384 kts 20°
2026-05-08 17:44 41.88489 -3.20087 17498 ft 381 kts 20°
2026-05-08 17:44 41.90895 -3.18631 17077 ft 380 kts 30°
2026-05-08 17:44 41.93004 -3.16509 16675 ft 378 kts 39°
2026-05-08 17:44 41.94995 -3.14220 16295 ft 375 kts 41°
2026-05-08 17:45 41.96955 -3.11943 15943 ft 371 kts 41°
2026-05-08 17:45 41.98900 -3.09691 15572 ft 368 kts 41°
2026-05-08 17:45 42.00833 -3.07462 15203 ft 365 kts 41°
2026-05-08 17:45 42.02753 -3.05257 14845 ft 362 kts 41°
2026-05-08 17:46 42.04671 -3.03067 14433 ft 361 kts 41°
2026-05-08 17:46 42.06586 -3.00901 14024 ft 359 kts 40°
2026-05-08 17:46 42.08636 -2.99097 13648 ft 357 kts 28°
2026-05-08 17:46 42.10846 -2.97574 13139 ft 356 kts 27°
2026-05-08 17:47 42.12337 -2.96560 12882 ft 354 kts 27°
2026-05-08 17:47 42.14523 -2.95060 12450 ft 352 kts 28°
2026-05-08 17:47 42.16595 -2.93311 12042 ft 350 kts 33°
2026-05-08 17:47 42.18765 -2.92027 11664 ft 347 kts 13°
2026-05-08 17:48 42.21179 -2.91571 11421 ft 344 kts
2026-05-08 17:48 42.23560 -2.91224 11624 ft 345 kts
2026-05-08 17:48 42.25962 -2.90876 11848 ft 348 kts
2026-05-08 17:48 42.28368 -2.90527 11920 ft 347 kts
2026-05-08 17:49 42.30769 -2.90178 11931 ft 348 kts
2026-05-08 17:49 42.33180 -2.89830 11923 ft 348 kts
2026-05-08 17:49 42.35585 -2.89483 11922 ft 348 kts
2026-05-08 17:49 42.37990 -2.89134 11925 ft 347 kts
2026-05-08 17:50 42.40409 -2.88782 11928 ft 359 kts
2026-05-08 17:50 42.43000 -2.88411 11924 ft 389 kts
2026-05-08 17:50 42.45744 -2.88027 11923 ft 400 kts
2026-05-08 17:50 42.48527 -2.87751 11923 ft 402 kts
2026-05-08 17:51 42.51330 -2.87581 11925 ft 402 kts
2026-05-08 17:51 42.54129 -2.87469 11926 ft 403 kts
2026-05-08 17:51 42.56935 -2.87374 11926 ft 403 kts
2026-05-08 17:51 42.59739 -2.87268 11930 ft 403 kts
2026-05-08 17:52 42.62535 -2.87145 11923 ft 403 kts
2026-05-08 17:52 42.65340 -2.87004 11925 ft 403 kts
2026-05-08 17:52 42.70948 -2.86709 11927 ft 403 kts 359°
2026-05-08 17:53 42.73698 -2.87261 11927 ft 399 kts 340°
2026-05-08 17:53 42.76186 -2.88855 11931 ft 395 kts 327°
2026-05-08 17:53 42.78579 -2.90693 11932 ft 395 kts 327°
2026-05-08 17:53 42.80997 -2.92560 11765 ft 394 kts 327°
2026-05-08 17:54 42.83352 -2.94385 11449 ft 382 kts 327°
2026-05-08 17:54 42.85622 -2.96141 11147 ft 370 kts 327°
2026-05-08 17:54 42.87843 -2.97862 10636 ft 366 kts 327°
2026-05-08 17:54 42.90046 -2.99572 10125 ft 363 kts 327°
2026-05-08 17:55 42.92235 -3.01277 9925 ft 362 kts 327°
2026-05-08 17:55 42.94423 -3.02986 9920 ft 363 kts 327°
2026-05-08 17:55 42.96617 -3.04697 9925 ft 363 kts 327°
2026-05-08 17:55 42.98752 -3.06357 9927 ft 355 kts 327°
2026-05-08 17:56 43.00841 -3.07975 9921 ft 336 kts 327°
2026-05-08 17:56 43.02823 -3.09510 9811 ft 320 kts 327°
2026-05-08 17:56 43.04725 -3.10987 9665 ft 308 kts 327°
2026-05-08 17:56 43.06565 -3.12423 9365 ft 303 kts 327°
2026-05-08 17:57 43.08387 -3.13852 9019 ft 300 kts 327°
2026-05-08 17:57 43.10196 -3.15274 8614 ft 299 kts 327°
2026-05-08 17:57 43.11994 -3.16688 8288 ft 297 kts 327°
2026-05-08 17:57 43.13778 -3.18091 7953 ft 295 kts 327°
2026-05-08 17:58 43.15548 -3.19479 7627 ft 292 kts 327°
2026-05-08 17:58 43.17308 -3.20855 7257 ft 290 kts 327°
2026-05-08 17:58 43.19056 -3.22222 6891 ft 289 kts 328°
2026-05-08 17:58 43.20809 -3.23594 6386 ft 290 kts 328°
2026-05-08 17:59 43.22543 -3.24955 6040 ft 286 kts 328°
2026-05-08 17:59 43.24262 -3.26307 5661 ft 283 kts 328°
2026-05-08 17:59 43.26074 -3.27342 5253 ft 283 kts 345°
2026-05-08 17:59 43.28012 -3.27740 4861 ft 281 kts 355°
2026-05-08 18:00 43.29959 -3.27890 4535 ft 277 kts 359°
2026-05-08 18:00 43.33640 -3.27642 4164 ft 257 kts
2026-05-08 18:00 43.35385 -3.27267 3944 ft 249 kts 11°
2026-05-08 18:01 43.37039 -3.26756 3816 ft 237 kts 15°
2026-05-08 18:01 43.38562 -3.26141 3681 ft 220 kts 20°
2026-05-08 18:01 43.39917 -3.25328 3397 ft 208 kts 38°
2026-05-08 18:01 43.40815 -3.23875 3024 ft 198 kts 68°
2026-05-08 18:02 43.41097 -3.22049 3000 ft 196 kts 94°
2026-05-08 18:02 43.40929 -3.20820 2999 ft 194 kts 112°
2026-05-08 18:02 43.40154 -3.18624 3000 ft 192 kts 119°
2026-05-08 18:02 43.39548 -3.16956 3001 ft 193 kts 119°
2026-05-08 18:03 43.38957 -3.15327 3002 ft 193 kts 118°
2026-05-08 18:03 43.38361 -3.13685 2997 ft 187 kts 119°
2026-05-08 18:03 43.37788 -3.12109 3003 ft 181 kts 119°
2026-05-08 18:03 43.37229 -3.10569 2984 ft 178 kts 120°
2026-05-08 18:04 43.36678 -3.09056 2829 ft 178 kts 117°
2026-05-08 18:04 43.36142 -3.07582 2617 ft 165 kts 117°
2026-05-08 18:04 43.35638 -3.06198 2410 ft 160 kts 117°
2026-05-08 18:04 43.35142 -3.04838 2183 ft 158 kts 118°
2026-05-08 18:05 43.34653 -3.03497 1972 ft 157 kts 117°
2026-05-08 18:05 43.34190 -3.02226 1757 ft 141 kts 117°
2026-05-08 18:05 43.33763 -3.01056 1556 ft 134 kts 116°
2026-05-08 18:05 43.33353 -2.99933 1392 ft 132 kts 115°
2026-05-08 18:06 43.32944 -2.98813 1208 ft 132 kts 115°
2026-05-08 18:06 43.32544 -2.97717 1030 ft 132 kts 114°
2026-05-08 18:06 43.32135 -2.96599 852 ft 132 kts 115°
2026-05-08 18:06 43.31729 -2.95482 689 ft 130 kts 115°
2026-05-08 18:07 43.31325 -2.94378 520 ft 130 kts 116°
2026-05-08 18:07 43.30937 -2.93309 332 ft 129 kts 116°
2026-05-08 18:07 43.30559 -2.92272 144 ft 129 kts 116°
2026-05-08 18:07 43.30291 -2.91602 127 ft 119 kts 105°
2026-05-08 18:08 43.30159 -2.91228 125 ft 97 kts 116°
2026-05-08 18:08 43.30068 -2.90972 124 ft 75 kts 115°
2026-05-08 18:08 43.29971 -2.90693 124 ft 37 kts 115°
2026-05-08 18:08 43.29937 -2.90482 127 ft 21 kts 102°
2026-05-08 18:09 43.29928 -2.90322 133 ft 17 kts 91°
2026-05-08 18:09 43.29969 -2.90218 132 ft 6 kts
2026-05-08 18:09 43.30001 -2.90256 132 ft 7 kts 302°
2026-05-08 18:09 43.30025 -2.90318 132 ft 8 kts 298°
2026-05-08 18:10 43.30050 -2.90388 132 ft 8 kts 295°
2026-05-08 18:10 43.30076 -2.90464 132 ft 9 kts 295°
2026-05-08 18:10 43.30107 -2.90542 132 ft 10 kts 300°
2026-05-08 18:10 43.30162 -2.90572 132 ft 9 kts 20°
2026-05-08 18:11 43.30219 -2.90525 132 ft 10 kts 27°
2026-05-08 18:11 43.30273 -2.90544 132 ft 4 kts 319°
2026-05-08 18:11 43.30280 -2.90553 132 ft 0 kts 319°
2026-05-08 18:11 43.30289 -2.90563 132 ft 4 kts 324°
2026-05-08 18:12 43.30310 -2.90582 132 ft 4 kts 325°
2026-05-08 18:12 43.30338 -2.90608 132 ft 5 kts 326°
2026-05-08 18:12 43.30357 -2.90649 132 ft 5 kts 291°
2026-05-08 18:12 43.30370 -2.90691 132 ft 6 kts 297°
2026-05-08 18:13 43.30391 -2.90744 132 ft 7 kts 298°
2026-05-08 18:13 43.30412 -2.90802 132 ft 7 kts 289°
2026-05-08 18:13 43.30428 -2.90842 132 ft 4 kts 15°
2026-05-08 18:13 43.30459 -2.90824 132 ft 5 kts 27°
2026-05-08 18:14 43.30486 -2.90805 132 ft 0 kts 27°